Location: Eymir
(36.7333°N, 29.7833°E)
Time: 17:29:14
(UTC+00:00)

SeaSat 1 - Pass Details

Date: 14 January 2026
Orbit: 737 x 740 km, 108.0° (Epoch: 17 February)

Event Time Altitude Azimuth Distance (km) Brightness Sun altitude
Rises 03:33:48 0° 30° (NNE) 3,178 5.9 -19.5°
Reaches altitude 10° 03:36:08 10° 36° (NE) 2,251 5.2 -19.1°
Maximum altitude 03:40:53 50° 112° (ESE) 935 3.3 -18.1°
Drops below altitude 10° 03:45:36 10° 187° (S) 2,238 5.0 -17.2°
Sets 03:47:55 0° 193° (SSW) 3,157 5.7 -16.8°
